OK,104,19,836,104,2014-10-01T01:40:00,0,28072606,203769
OK,104,19,836,104,2014-10-01T01:45:00,0,28073053,203769
OK,104,19,836,104,2014-10-01T01:50:00,0,28073502,203769
OK,104,19,836,104,2014-10-01T01:55:00,0,28073820,203769
OK,104,19,836,104,2014-10-01T02:00:00,0,28074268,203769
OK,104,19,836,104,2014-10-01T02:05:00,0,28074711,203769
OK,104,19,836,104,2014-10-01T02:10:00,0,28075157,203769
OK,104,19,836,104,2014-10-01T02:20:00,0,28075606,203769
OK,104,19,836,104,2014-10-01T02:25:00,0,28076438,203769
OK,104,19,836,104,2014-10-01T02:30:00,0,28076887,203769
OK,104,19,836,104,2014-10-01T02:35:00,0,28077336,203769
OK,104,19,836,104,2014-10-01T02:40:00,0,28077742,203769
OK,104,19,836,104,2014-10-01T02:45:00,0,28078188,203769
OK,104,19,836,104,2014-10-01T02:50:00,0,28078633,203769
OK,104,19,836,104,2014-10-01T02:55:00,0,28079082,203769
OK,104,19,836,104,2014-10-01T03:00:00,0,28079524,203769
OK,104,19,836,104,2014-10-01T03:05:00,0,28079973,203769
OK,104,19,836,104,2014-10-01T03:10:00,0,28080311,203769
OK,104,19,836,104,2014-10-01T03:15:00,0,28080756,203769
OK,104,19,836,104,2014-10-01T03:20:00,0,28081205,203769
OK,104,19,836,104,2014-10-01T03:25:00,0,28081652,203769
OK,104,19,836,104,2014-10-01T03:30:00,0,28082101,203769
OK,104,19,836,104,2014-10-01T03:35:00,0,28082537,203769
OK,104,19,836,104,2014-10-01T03:40:00,0,28082967,203769
OK,104,19,836,104,2014-10-01T03:45:00,0,28083415,203769
OK,104,19,836,104,2014-10-01T03:50:00,0,28083864,203769
OK,104,19,836,104,2014-10-01T03:55:00,0,28084307,203769
OK,60,34,836,60,2014-10-01T04:00:00,3,28084735,203769
OK,60,34,836,60,2014-10-01T04:05:00,3,28085179,203769
OK,43,48,836,43,2014-10-01T04:10:00,1,28085625,203769
OK,71,29,836,71,2014-10-01T04:15:00,2,28086073,203769
OK,56,36,836,56,2014-10-01T04:20:00,3,28086516,203769
OK,52,39,836,52,2014-10-01T04:25:00,4,28086964,203769
OK,47,43,836,47,2014-10-01T04:30:00,4,28087409,203769
OK,45,45,836,45,2014-10-01T04:35:00,0,28087858,203769
OK,36,57,836,36,2014-10-01T04:40:00,1,28088286,203769
OK,36,57,836,36,2014-10-01T04:45:00,0,28088731,203769
OK,36,57,836,36,2014-10-01T04:50:00,0,28089163,203769
OK,71,29,836,71,2014-10-01T04:55:00,1,28089610,203769
OK,42,49,836,42,2014-10-01T05:05:00,4,28090059,203769
OK,93,22,836,93,2014-10-01T05:10:00,3,28090852,203769
OK,93,22,836,93,2014-10-01T05:15:00,4,28091301,203769
OK,56,36,836,56,2014-10-01T05:20:00,1,28091721,203769
OK,72,28,836,72,2014-10-01T05:25:00,3,28092167,203769
OK,52,39,836,52,2014-10-01T05:30:00,3,28092612,203769
OK,74,27,836,74,2014-10-01T05:35:00,5,28093053,203769
OK,87,23,836,87,2014-10-01T05:40:00,7,28093483,203769
OK,134,15,836,134,2014-10-01T05:45:00,4,28093932,203769
OK,76,27,836,76,2014-10-01T05:50:00,6,28094347,203769
OK,71,29,836,71,2014-10-01T05:55:00,10,28094788,203769
OK,54,38,836,54,2014-10-01T06:00:00,6,28095235,203769
OK,61,33,836,61,2014-10-01T06:05:00,2,28095684,203769
OK,48,43,836,48,2014-10-01T06:10:00,1,28096100,203769
OK,48,43,836,48,2014-10-01T06:15:00,1,28096546,203769
OK,93,22,836,93,2014-10-01T06:20:00,2,28096983,203769
OK,67,30,836,67,2014-10-01T06:25:00,3,28097429,203769
OK,71,29,836,71,2014-10-01T06:30:00,3,28097878,203769
OK,77,26,836,77,2014-10-01T06:35:00,3,28098317,203769
OK,96,21,836,96,2014-10-01T06:40:00,1,28098760,203769
OK,60,34,836,60,2014-10-01T06:45:00,1,28099207,203769
OK,70,29,836,70,2014-10-01T06:50:00,4,28099554,203769
OK,64,32,836,64,2014-10-01T06:55:00,3,28099999,203769
OK,58,35,836,58,2014-10-01T07:00:00,1,28100310,203769
OK,171,12,836,171,2014-10-01T07:05:00,1,28100755,203769
OK,171,12,836,171,2014-10-01T07:10:00,1,28101129,203769
OK,37,55,836,37,2014-10-01T07:15:00,1,28101575,203769
OK,52,39,836,52,2014-10-01T07:20:00,1,28102012,203769
OK,76,27,836,76,2014-10-01T07:25:00,2,28102460,203769
OK,67,30,836,67,2014-10-01T07:30:00,3,28102893,203769
OK,65,31,836,65,2014-10-01T07:35:00,4,28103334,203769
OK,78,26,836,78,2014-10-01T07:40:00,3,28103780,203769
OK,86,24,836,86,2014-10-01T07:45:00,0,28104224,203769
OK,72,28,836,72,2014-10-01T07:50:00,2,28104666,203769
OK,59,35,836,59,2014-10-01T07:55:00,3,28105110,203769
OK,89,23,836,89,2014-10-01T08:00:00,2,28105552,203769
OK,120,17,836,120,2014-10-01T08:05:00,0,28105999,203769
OK,120,17,836,120,2014-10-01T08:10:00,0,28106437,203769
OK,83,24,836,83,2014-10-01T08:15:00,1,28106845,203769
OK,84,24,836,84,2014-10-01T08:20:00,3,28107274,203769
OK,84,24,836,84,2014-10-01T08:25:00,1,28107723,203769
OK,80,25,836,80,2014-10-01T08:30:00,2,28108162,203769
OK,78,26,836,78,2014-10-01T08:35:00,2,28108611,203769
OK,107,19,836,107,2014-10-01T08:40:00,2,28109041,203769
OK,124,16,836,124,2014-10-01T08:45:00,0,28109488,203769
OK,103,20,836,103,2014-10-01T08:50:00,2,28109834,203769
OK,67,30,836,67,2014-10-01T08:55:00,2,28110280,203769
OK,72,28,836,72,2014-10-01T09:00:00,0,28110705,203769
OK,72,28,836,72,2014-10-01T09:05:00,0,28111152,203769
OK,46,44,836,46,2014-10-01T09:10:00,1,28111582,203769
OK,46,44,836,46,2014-10-01T09:15:00,1,28112030,203769
OK,46,44,836,46,2014-10-01T09:20:00,0,28112373,203769
OK,46,44,836,46,2014-10-01T09:25:00,0,28112820,203769
OK,73,28,836,73,2014-10-01T09:30:00,3,28113246,203769
OK,70,29,836,70,2014-10-01T09:35:00,5,28113693,203769
OK,69,29,836,69,2014-10-01T09:40:00,3,28114126,203769
OK,50,41,836,50,2014-10-01T09:45:00,0,28114574,203769
OK,61,33,836,61,2014-10-01T09:50:00,1,28114930,203769
OK,62,33,836,62,2014-10-01T09:55:00,2,28115377,203769
OK,78,26,836,78,2014-10-01T10:00:00,1,28115791,203769
OK,52,39,836,52,2014-10-01T10:05:00,3,28116238,203769
OK,48,43,836,48,2014-10-01T10:10:00,2,28116648,203769
OK,68,30,836,68,2014-10-01T10:15:00,1,28117095,203769
OK,68,30,836,68,2014-10-01T10:20:00,0,28117521,203769
OK,68,30,836,68,2014-10-01T10:25:00,0,28117969,203769
OK,68,30,836,68,2014-10-01T10:30:00,0,28118414,203769
OK,126,16,836,126,2014-10-01T10:35:00,1,28118861,203769
OK,126,16,836,126,2014-10-01T10:40:00,1,28119305,203769
OK,126,16,836,126,2014-10-01T10:45:00,0,28119753,203769
OK,126,16,836,126,2014-10-01T10:50:00,0,28120201,203769
OK,126,16,836,126,2014-10-01T10:55:00,0,28120650,203769
OK,69,29,836,69,2014-10-01T11:00:00,1,28121035,203769
OK,69,29,836,69,2014-10-01T11:05:00,0,28121482,203769
OK,69,29,836,69,2014-10-01T11:10:00,0,28121921,203769
OK,61,33,836,61,2014-10-01T11:15:00,1,28122369,203769
OK,61,33,836,61,2014-10-01T11:20:00,0,28122811,203769
OK,61,33,836,61,2014-10-01T11:25:00,0,28123259,203769
OK,61,33,836,61,2014-10-01T11:30:00,0,28123693,203769
OK,61,33,836,61,2014-10-01T11:35:00,0,28124140,203769
OK,61,33,836,61,2014-10-01T11:40:00,0,28124546,203769
OK,58,35,836,58,2014-10-01T11:45:00,1,28124991,203769
OK,58,35,836,58,2014-10-01T11:50:00,0,28125420,203769
OK,103,20,836,103,2014-10-01T11:55:00,1,28125869,203769
OK,103,20,836,103,2014-10-01T12:00:00,1,28126223,203769
OK,83,24,836,83,2014-10-01T12:05:00,1,28126670,203769
OK,83,24,836,83,2014-10-01T12:10:00,0,28127119,203769
OK,89,23,836,89,2014-10-01T12:15:00,1,28127568,203769
OK,73,28,836,73,2014-10-01T12:20:00,3,28127998,203769
OK,71,29,836,71,2014-10-01T12:25:00,2,28128445,203769
OK,71,29,836,71,2014-10-01T12:30:00,0,28128881,203769
OK,81,25,836,81,2014-10-01T12:35:00,1,28129329,203769
OK,81,25,836,81,2014-10-01T12:40:00,1,28129764,203769
OK,81,25,836,81,2014-10-01T12:45:00,0,28130212,203769
OK,81,25,836,81,2014-10-01T12:50:00,0,28130642,203769
OK,49,42,836,49,2014-10-01T12:55:00,1,28131089,203769
OK,49,42,836,49,2014-10-01T13:00:00,1,28131528,203769
OK,95,21,836,95,2014-10-01T13:05:00,3,28131975,203769
OK,95,21,836,95,2014-10-01T13:10:00,5,28132414,203769
OK,142,14,836,142,2014-10-01T13:15:00,2,28132860,203769
OK,74,27,836,74,2014-10-01T13:20:00,0,28133298,203769
OK,74,27,836,74,2014-10-01T13:25:00,0,28133747,203769
OK,58,35,836,58,2014-10-01T13:30:00,2,28134186,203769
OK,98,21,836,98,2014-10-01T13:35:00,2,28134635,203769
OK,105,19,836,105,2014-10-01T13:40:00,2,28135055,203769
OK,72,28,836,72,2014-10-01T13:45:00,2,28135503,203769
OK,71,29,836,71,2014-10-01T13:50:00,0,28135940,203769
OK,87,23,836,87,2014-10-01T13:55:00,1,28136389,203769
OK,87,23,836,87,2014-10-01T14:00:00,1,28136829,203769
OK,75,27,836,75,2014-10-01T14:05:00,1,28137278,203769
OK,62,33,836,62,2014-10-01T14:10:00,2,28137713,203769
OK,49,42,836,49,2014-10-01T14:15:00,1,28138161,203769
OK,49,42,836,49,2014-10-01T14:20:00,0,28138590,203769
OK,49,42,836,49,2014-10-01T14:25:00,0,28139038,203769
OK,49,42,836,49,2014-10-01T14:30:00,0,28139450,203769
OK,49,42,836,49,2014-10-01T14:35:00,0,28139898,203769
OK,92,22,836,92,2014-10-01T14:40:00,2,28140341,203769
OK,78,26,836,78,2014-10-01T14:45:00,4,28140789,203769
OK,56,36,836,56,2014-10-01T14:50:00,2,28141217,203769
OK,39,52,836,39,2014-10-01T14:55:00,1,28141664,203769
OK,39,52,836,39,2014-10-01T15:00:00,0,28142094,203769
OK,77,26,836,77,2014-10-01T15:05:00,2,28142541,203769
OK,57,36,836,57,2014-10-01T15:10:00,3,28142970,203769
OK,57,36,836,57,2014-10-01T15:15:00,0,28143417,203769
OK,65,31,836,65,2014-10-01T15:20:00,5,28143865,203769
OK,60,34,836,60,2014-10-01T15:25:00,3,28144314,203769
OK,42,49,836,42,2014-10-01T15:30:00,1,28144739,203769
OK,42,49,836,42,2014-10-01T15:35:00,0,28145149,203769
OK,42,49,836,42,2014-10-01T15:40:00,0,28145598,203769
OK,42,49,836,42,2014-10-01T15:45:00,0,28146047,203769
OK,42,49,836,42,2014-10-01T15:50:00,0,28146496,203769
OK,42,49,836,42,2014-10-01T15:55:00,0,28146908,203769
OK,42,49,836,42,2014-10-01T16:00:00,0,28147348,203769
OK,42,49,836,42,2014-10-01T16:05:00,0,28147797,203769
OK,65,31,836,65,2014-10-01T16:10:00,1,28148200,203769
OK,65,31,836,65,2014-10-01T16:15:00,5,28148647,203769
OK,86,24,836,86,2014-10-01T16:20:00,5,28149088,203769
OK,44,46,836,44,2014-10-01T16:25:00,1,28149535,203769
OK,44,46,836,44,2014-10-01T16:30:00,1,28149963,203769
OK,44,46,836,44,2014-10-01T16:35:00,0,28150410,203769
OK,44,46,836,44,2014-10-01T16:40:00,0,28150830,203769
OK,44,46,836,44,2014-10-01T16:45:00,0,28151277,203769
OK,44,46,836,44,2014-10-01T16:50:00,0,28151726,203769
OK,83,24,836,83,2014-10-01T17:00:00,1,28152175,203769
OK,83,24,836,83,2014-10-01T17:05:00,0,28152621,203769
OK,78,26,836,78,2014-10-01T17:10:00,2,28153068,203769
OK,78,26,836,78,2014-10-01T17:15:00,2,28153517,203769
OK,58,35,836,58,2014-10-01T17:20:00,1,28153930,203769
OK,58,35,836,58,2014-10-01T17:25:00,0,28154376,203769
OK,58,35,836,58,2014-10-01T17:30:00,0,28154818,203769
OK,82,25,836,82,2014-10-01T17:35:00,2,28155266,203769
OK,82,25,836,82,2014-10-01T17:40:00,2,28155687,203769
OK,61,33,836,61,2014-10-01T17:45:00,1,28156133,203769
OK,61,33,836,61,2014-10-01T17:50:00,1,28156582,203769
OK,61,33,836,61,2014-10-01T17:55:00,0,28157020,203769
OK,35,59,836,35,2014-10-01T18:00:00,1,28157452,203769
OK,41,50,836,41,2014-10-01T18:05:00,2,28157898,203769
OK,47,43,836,47,2014-10-01T18:10:00,1,28158342,203769
OK,58,35,836,58,2014-10-01T18:15:00,2,28158789,203769
OK,48,43,836,48,2014-10-01T18:20:00,1,28159234,203769
OK,48,43,836,48,2014-10-01T18:25:00,0,28159570,203769
OK,58,35,836,58,2014-10-01T18:30:00,1,28160018,203769
OK,58,35,836,58,2014-10-01T18:35:00,1,28160467,203769
OK,58,35,836,58,2014-10-01T18:40:00,0,28160906,203769
OK,58,35,836,58,2014-10-01T18:45:00,0,28161354,203769
OK,58,35,836,58,2014-10-01T18:50:00,0,28161772,203769
OK,58,35,836,58,2014-10-01T19:00:00,0,28162220,203769
OK,58,35,836,58,2014-10-01T19:05:00,0,28163054,203769
OK,58,35,836,58,2014-10-01T19:10:00,0,28163501,203769
OK,117,17,836,117,2014-10-01T19:15:00,1,28163950,203769
OK,117,17,836,117,2014-10-01T19:20:00,1,28164383,203769
OK,117,17,836,117,2014-10-01T19:25:00,0,28164830,203769
OK,116,17,836,116,2014-10-01T19:30:00,1,28165257,203769
OK,116,17,836,116,2014-10-01T19:35:00,1,28165703,203769
OK,116,17,836,116,2014-10-01T19:40:00,0,28166144,203769
OK,116,17,836,116,2014-10-01T19:45:00,0,28166506,203769
OK,116,17,836,116,2014-10-01T19:50:00,0,28166955,203769
OK,116,17,836,116,2014-10-01T19:55:00,0,28167384,203769
OK,116,17,836,116,2014-10-01T20:00:00,0,28167818,203769
OK,116,17,836,116,2014-10-01T20:05:00,0,28168266,203769
OK,116,17,836,116,2014-10-01T20:10:00,0,28168711,203769
OK,116,17,836,116,2014-10-01T20:15:00,0,28169160,203769
OK,116,17,836,116,2014-10-01T20:20:00,0,28169608,203769
OK,116,17,836,116,2014-10-01T20:25:00,0,28170034,203769
OK,116,17,836,116,2014-10-01T20:30:00,0,28170479,203769
OK,116,17,836,116,2014-10-01T20:35:00,0,28170927,203769
OK,116,17,836,116,2014-10-01T20:40:00,0,28171364,203769
OK,116,17,836,116,2014-10-01T20:45:00,0,28171810,203769
OK,116,17,836,116,2014-10-01T20:50:00,0,28172258,203769
OK,116,17,836,116,2014-10-01T20:55:00,0,28172704,203769
OK,116,17,836,116,2014-10-01T21:00:00,0,28173150,203769
OK,116,17,836,116,2014-10-01T21:05:00,0,28173599,203769
OK,116,17,836,116,2014-10-01T21:10:00,0,28174040,203769
OK,116,17,836,116,2014-10-01T21:15:00,0,28174489,203769
OK,52,39,836,52,2014-10-01T21:20:00,1,28174915,203769
OK,52,39,836,52,2014-10-01T21:25:00,1,28175311,203769
OK,52,39,836,52,2014-10-01T21:30:00,0,28175760,203769
OK,52,39,836,52,2014-10-01T21:35:00,0,28176209,203769
OK,52,39,836,52,2014-10-01T21:40:00,0,28176658,203769
OK,52,39,836,52,2014-10-01T21:45:00,0,28177022,203769
OK,52,39,836,52,2014-10-01T21:50:00,0,28177454,203769
OK,52,39,836,52,2014-10-01T21:55:00,0,28177900,203769
OK,52,39,836,52,2014-10-01T22:00:00,0,28178349,203769
OK,52,39,836,52,2014-10-01T22:05:00,0,28178796,203769
OK,52,39,836,52,2014-10-01T22:10:00,0,28179232,203769
OK,52,39,836,52,2014-10-01T22:15:00,0,28179673,203769
OK,52,39,836,52,2014-10-01T22:20:00,0,28180120,203769
OK,52,39,836,52,2014-10-01T22:25:00,0,28180519,203769
OK,52,39,836,52,2014-10-01T22:30:00,0,28180967,203769
OK,52,39,836,52,2014-10-01T22:35:00,0,28181391,203769
OK,52,39,836,52,2014-10-01T22:40:00,0,28181839,203769
OK,52,39,836,52,2014-10-01T22:45:00,0,28182286,203769
OK,52,39,836,52,2014-10-01T22:50:00,0,28182735,203769
OK,52,39,836,52,2014-10-01T22:55:00,0,28183152,203769
OK,52,39,836,52,2014-10-01T23:00:00,0,28183585,203769
OK,52,39,836,52,2014-10-01T23:05:00,0,28184030,203769
OK,52,39,836,52,2014-10-01T23:10:00,0,28184479,203769
OK,52,39,836,52,2014-10-01T23:15:00,0,28184914,203769
OK,52,39,836,52,2014-10-01T23:20:00,0,28185362,203769
OK,52,39,836,52,2014-10-01T23:25:00,0,28185793,203769
OK,52,39,836,52,2014-10-01T23:30:00,0,28186185,203769
OK,52,39,836,52,2014-10-01T23:40:00,0,28187032,203769
OK,52,39,836,52,2014-10-01T23:45:00,0,28187474,203769
OK,52,39,836,52,2014-10-01T23:55:00,0,28188364,203769
OK,52,39,836,52,2014-10-02T00:00:00,0,28188800,203769
OK,52,39,836,52,2014-10-02T00:05:00,0,28189249,203769
OK,52,39,836,52,2014-10-02T00:10:00,0,28189673,203769
OK,52,39,836,52,2014-10-02T00:15:00,0,28190120,203769
OK,52,39,836,52,2014-10-02T00:20:00,0,28190475,203769
OK,52,39,836,52,2014-10-02T00:25:00,0,28190922,203769
OK,52,39,836,52,2014-10-02T00:30:00,0,28191371,203769
OK,52,39,836,52,2014-10-02T00:35:00,0,28191679,203769
OK,52,39,836,52,2014-10-02T00:40:00,0,28192126,203769
OK,52,39,836,52,2014-10-02T00:45:00,0,28192560,203769
OK,52,39,836,52,2014-10-02T00:50:00,0,28193003,203769
OK,52,39,836,52,2014-10-02T00:55:00,0,28193370,203769
OK,52,39,836,52,2014-10-02T01:05:00,0,28194268,203769
OK,52,39,836,52,2014-10-02T01:15:00,0,28194717,203769
OK,52,39,836,52,2014-10-02T01:20:00,0,28195402,203769
OK,52,39,836,52,2014-10-02T01:30:00,0,28195851,203769
OK,52,39,836,52,2014-10-02T01:35:00,0,28196584,203769
OK,52,39,836,52,2014-10-02T01:40:00,0,28197009,203769
OK,52,39,836,52,2014-10-02T01:45:00,0,28197456,203769
OK,52,39,836,52,2014-10-02T01:50:00,0,28197904,203769
OK,52,39,836,52,2014-10-02T01:55:00,0,28198352,203769
OK,52,39,836,52,2014-10-02T02:05:00,0,28198801,203769
OK,52,39,836,52,2014-10-02T02:10:00,0,28199615,203769
OK,52,39,836,52,2014-10-02T02:15:00,0,28200057,203769
OK,52,39,836,52,2014-10-02T02:20:00,0,28200500,203769
OK,52,39,836,52,2014-10-02T02:25:00,0,28200949,203769
OK,52,39,836,52,2014-10-02T02:30:00,0,28201380,203769
OK,52,39,836,52,2014-10-02T02:45:00,0,28202278,203769
OK,52,39,836,52,2014-10-02T02:50:00,0,28202720,203769
OK,52,39,836,52,2014-10-02T02:55:00,0,28203168,203769
OK,52,39,836,52,2014-10-02T03:00:00,0,28203603,203769
OK,52,39,836,52,2014-10-02T03:10:00,0,28204052,203769
OK,52,39,836,52,2014-10-02T03:25:00,0,28204501,203769
OK,52,39,836,52,2014-10-02T03:30:00,0,28204950,203769
OK,52,39,836,52,2014-10-02T03:35:00,0,28205380,203769
OK,52,39,836,52,2014-10-02T03:40:00,0,28205825,203769
OK,52,39,836,52,2014-10-02T03:45:00,0,28206208,203769
OK,52,39,836,52,2014-10-02T03:55:00,0,28207106,203769
OK,52,39,836,52,2014-10-02T04:00:00,0,28207528,203769
OK,52,39,836,52,2014-10-02T04:05:00,0,28207974,203769
OK,52,39,836,52,2014-10-02T04:10:00,0,28208404,203769
OK,52,39,836,52,2014-10-02T04:15:00,0,28208850,203769
OK,52,39,836,52,2014-10-02T04:20:00,0,28209289,203769
OK,52,39,836,52,2014-10-02T04:25:00,0,28209737,203769
OK,79,26,836,79,2014-10-02T04:30:00,1,28210161,203769
OK,79,26,836,79,2014-10-02T04:35:00,0,28210609,203769
OK,79,26,836,79,2014-10-02T04:40:00,0,28211037,203769
OK,79,26,836,79,2014-10-02T04:45:00,0,28211478,203769
OK,79,26,836,79,2014-10-02T04:50:00,0,28211856,203769
OK,71,29,836,71,2014-10-02T04:55:00,0,28212305,203769
OK,71,29,836,71,2014-10-02T05:00:00,0,28212734,203769
OK,53,38,836,53,2014-10-02T05:05:00,1,28213183,203769
OK,53,38,836,53,2014-10-02T05:10:00,0,28213622,203769
OK,87,23,836,87,2014-10-02T05:15:00,2,28214070,203769
OK,94,21,836,94,2014-10-02T05:20:00,0,28214486,203769
OK,99,20,836,99,2014-10-02T05:25:00,2,28214932,203769
OK,99,20,836,99,2014-10-02T05:30:00,1,28215351,203769
OK,61,33,836,61,2014-10-02T05:40:00,4,28215797,203769
OK,82,25,836,82,2014-10-02T05:45:00,0,28216576,203769
OK,82,25,836,82,2014-10-02T05:50:00,0,28217023,203769
OK,69,29,836,69,2014-10-02T05:55:00,8,28217472,203769
OK,69,29,836,69,2014-10-02T06:00:00,3,28217911,203769
OK,69,29,836,69,2014-10-02T06:05:00,3,28218360,203769
OK,87,23,836,87,2014-10-02T06:10:00,1,28218782,203769
OK,87,23,836,87,2014-10-02T06:15:00,0,28219229,203769
OK,77,26,836,77,2014-10-02T06:20:00,3,28219604,203769
OK,77,26,836,77,2014-10-02T06:25:00,3,28220051,203769
OK,77,26,836,77,2014-10-02T06:30:00,1,28220487,203769
OK,64,32,836,64,2014-10-02T06:35:00,1,28220934,203769
OK,50,41,836,50,2014-10-02T06:40:00,2,28221324,203769
OK,43,48,836,43,2014-10-02T06:45:00,2,28221601,203769
OK,50,41,836,50,2014-10-02T07:00:00,0,28222195,203769
OK,50,41,836,50,2014-10-02T07:05:00,0,28222644,203769
OK,50,41,836,50,2014-10-02T07:10:00,5,28223077,203769
OK,69,29,836,69,2014-10-02T07:15:00,4,28223511,203769
OK,91,22,836,91,2014-10-02T07:20:00,0,28223958,203769
OK,84,24,836,84,2014-10-02T07:25:00,0,28224313,203769
OK,84,24,836,84,2014-10-02T07:30:00,0,28224762,203769
OK,60,34,836,60,2014-10-02T07:35:00,2,28225211,203769
OK,57,36,836,57,2014-10-02T07:40:00,1,28225537,203769
OK,65,31,836,65,2014-10-02T07:50:00,1,28226423,203769
OK,43,48,836,43,2014-10-02T07:55:00,1,28226872,203769
OK,43,48,836,43,2014-10-02T08:00:00,0,28227290,203769
OK,56,36,836,56,2014-10-02T08:05:00,2,28227736,203769
OK,49,42,836,49,2014-10-02T08:10:00,1,28228097,203769
OK,38,54,836,38,2014-10-02T08:15:00,0,28228544,203769
OK,38,54,836,38,2014-10-02T08:20:00,0,28228956,203769
OK,64,32,836,64,2014-10-02T08:25:00,2,28229403,203769
OK,54,38,836,54,2014-10-02T08:30:00,1,28229756,203769
OK,63,32,836,63,2014-10-02T08:35:00,1,28230202,203769
OK,63,32,836,63,2014-10-02T08:40:00,0,28230575,203769
OK,63,32,836,63,2014-10-02T08:45:00,0,28231017,203769
OK,52,39,836,52,2014-10-02T08:50:00,1,28231441,203769
OK,52,39,836,52,2014-10-02T08:55:00,0,28231889,203769
OK,63,32,836,63,2014-10-02T09:00:00,2,28232233,203769
OK,63,32,836,63,2014-10-02T09:10:00,0,28232680,203769
OK,55,37,836,55,2014-10-02T09:15:00,2,28233129,203769
OK,56,36,836,56,2014-10-02T09:20:00,0,28233554,203769
OK,30,68,836,30,2014-10-02T09:25:00,0,28234002,203769
OK,30,68,836,30,2014-10-02T09:30:00,0,28234337,203769
OK,30,68,836,30,2014-10-02T09:35:00,0,28234784,203769
OK,30,68,836,30,2014-10-02T09:40:00,0,28235211,203769
OK,30,68,836,30,2014-10-02T09:45:00,0,28235660,203769
OK,30,68,836,30,2014-10-02T09:50:00,0,28236104,203769
OK,97,21,836,97,2014-10-02T09:55:00,2,28236550,203769
OK,97,21,836,97,2014-10-02T10:00:00,2,28236955,203769
OK,157,13,836,157,2014-10-02T10:05:00,0,28237401,203769
OK,50,41,836,50,2014-10-02T10:10:00,2,28237849,203769
OK,50,41,836,50,2014-10-02T10:15:00,2,28238297,203769
OK,52,39,836,52,2014-10-02T10:20:00,1,28238738,203769
OK,52,39,836,52,2014-10-02T10:25:00,1,28239186,203769
OK,52,39,836,52,2014-10-02T10:30:00,0,28239617,203769
OK,60,34,836,60,2014-10-02T10:35:00,0,28240065,203769
OK,60,34,836,60,2014-10-02T10:40:00,0,28240510,203769
OK,60,34,836,60,2014-10-02T10:45:00,0,28240958,203769
OK,60,34,836,60,2014-10-02T10:50:00,0,28241391,203769
OK,60,34,836,60,2014-10-02T10:55:00,0,28241838,203769
OK,60,34,836,60,2014-10-02T11:00:00,0,28242236,203769
OK,60,34,836,60,2014-10-02T11:05:00,0,28242683,203769
OK,62,33,836,62,2014-10-02T11:15:00,2,28243132,203769
OK,86,24,836,86,2014-10-02T11:20:00,0,28243896,203769
OK,86,24,836,86,2014-10-02T11:25:00,0,28244325,203769
OK,86,24,836,86,2014-10-02T11:30:00,0,28244773,203769
OK,86,24,836,86,2014-10-02T11:35:00,0,28245222,203769
OK,86,24,836,86,2014-10-02T11:40:00,0,28245630,203769
OK,86,24,836,86,2014-10-02T11:45:00,0,28246077,203769
OK,34,60,836,34,2014-10-02T11:50:00,2,28246514,203769
OK,34,60,836,34,2014-10-02T11:55:00,4,28246963,203769
OK,98,21,836,98,2014-10-02T12:00:00,2,28247409,203769
OK,119,17,836,119,2014-10-02T12:05:00,1,28247841,203769
OK,119,17,836,119,2014-10-02T12:10:00,0,28248288,203769
OK,46,44,836,46,2014-10-02T12:15:00,2,28248736,203769
OK,52,39,836,52,2014-10-02T12:20:00,1,28249164,203769
OK,57,36,836,57,2014-10-02T12:25:00,1,28249607,203769
OK,57,36,836,57,2014-10-02T12:30:00,1,28250026,203769
OK,57,36,836,57,2014-10-02T12:35:00,0,28250424,203769
OK,57,36,836,57,2014-10-02T12:45:00,0,28251204,203769
OK,103,20,836,103,2014-10-02T13:20:00,1,28251749,203769
OK,36,57,836,36,2014-10-02T13:30:00,1,28252333,203769
OK,36,57,836,36,2014-10-02T13:35:00,1,28252775,203769
OK,36,57,836,36,2014-10-02T13:40:00,0,28253192,203769
OK,87,23,836,87,2014-10-02T13:45:00,1,28253641,203769
OK,95,21,836,95,2014-10-02T13:50:00,1,28254047,203769
OK,53,38,836,53,2014-10-02T13:55:00,5,28254367,203769
OK,81,25,836,81,2014-10-02T14:10:00,1,28254944,203769
OK,81,25,836,81,2014-10-02T14:15:00,0,28255393,203769
OK,81,25,836,81,2014-10-02T14:20:00,0,28255821,203769
OK,81,25,836,81,2014-10-02T14:25:00,0,28256270,203769
OK,60,34,836,60,2014-10-02T14:30:00,1,28256698,203769
OK,62,33,836,62,2014-10-02T14:35:00,2,28257147,203769
OK,59,35,836,59,2014-10-02T14:40:00,3,28257588,203769
OK,67,30,836,67,2014-10-02T14:45:00,2,28258036,203769
OK,72,28,836,72,2014-10-02T14:50:00,2,28258469,203769
OK,72,28,836,72,2014-10-02T14:55:00,2,28258915,203769
OK,70,29,836,70,2014-10-02T15:00:00,1,28259364,203769
OK,70,29,836,70,2014-10-02T15:05:00,0,28259811,203769
OK,70,29,836,70,2014-10-02T15:10:00,2,28260244,203769
OK,80,25,836,80,2014-10-02T15:15:00,5,28260693,203769
OK,136,15,836,136,2014-10-02T15:20:00,3,28261133,203769
OK,165,12,836,165,2014-10-02T15:25:00,0,28261515,203769
OK,165,12,836,165,2014-10-02T15:30:00,0,28261945,203769
OK,92,22,836,92,2014-10-02T15:35:00,1,28262392,203769
OK,92,22,836,92,2014-10-02T15:40:00,0,28262838,203769
OK,92,22,836,92,2014-10-02T15:45:00,0,28263276,203769
OK,92,22,836,92,2014-10-02T15:50:00,0,28263717,203769
OK,92,22,836,92,2014-10-02T15:55:00,0,28264119,203769
OK,92,22,836,92,2014-10-02T16:00:00,0,28264568,203769
OK,127,16,836,127,2014-10-02T16:05:00,0,28265006,203769
OK,127,16,836,127,2014-10-02T16:10:00,0,28265446,203769
OK,127,16,836,127,2014-10-02T16:15:00,0,28265842,203769
OK,74,27,836,74,2014-10-02T16:20:00,2,28266291,203769